• In Romania
  • List of Countries
  • For 7 days
  • Water Temperature
  • Satellite Maps
  • Weather Map
  • Weather Widgets
  • user-avatar
    Login

    Hourly Weather Osinovka

    Today, 13 November, Tuesday

    Time Temperature Precipitation Wind Pressure Humidity
    00:00 -7°C° 0 mm 5 mps 768 mmHg 43%
    01:00 -7°C° 0 mm 5 mps 768 mmHg 42%
    02:00 -7°C° 0 mm 5 mps 768 mmHg 45%
    03:00 -7°C° 0 mm 5 mps 768 mmHg 44%
    04:00 -7°C° 0 mm 5 mps 767 mmHg 44%
    05:00 -7°C° 0 mm 5 mps 767 mmHg 43%
    06:00 -7°C° 0 mm 5 mps 767 mmHg 43%
    07:00 -7°C° 0 mm 5 mps 766 mmHg 42%
    08:00 -8°C° 0 mm 6 mps 766 mmHg 40%
    09:00 -6°C° 0 mm 6 mps 766 mmHg 38%
    10:00 -5°C° 0 mm 6 mps 765 mmHg 35%
    11:00 -5°C° 0 mm 6 mps 765 mmHg 33%
    12:00 -4°C° 0 mm 7 mps 764 mmHg 30%
    13:00 -4°C° 0 mm 7 mps 764 mmHg 28%
    14:00 -4°C° 0 mm 7 mps 763 mmHg 26%
    15:00 -4°C° 0 mm 7 mps 763 mmHg 25%
    16:00 -4°C° 0 mm 7 mps 762 mmHg 24%
    17:00 -4°C° 0 mm 7 mps 762 mmHg 23%
    18:00 -4°C° 0 mm 6 mps 762 mmHg 24%
    19:00 -4°C° 0 mm 6 mps 761 mmHg 26%
    20:00 -4°C° 0 mm 6 mps 761 mmHg 27%
    21:00 -4°C° 0 mm 6 mps 760 mmHg 29%
    22:00 -4°C° 0 mm 6 mps 760 mmHg 31%
    23:00 -4°C° 0 mm 6 mps 760 mmHg 34%

    Tomorrow, 14 November, Wednesday

    Time Temperature Precipitation Wind Pressure Humidity
    00:00 -4°C° 0 mm 6 mps 759 mmHg 36%
    01:00 -4°C° 0 mm 6 mps 759 mmHg 39%
    02:00 -4°C° 0 mm 6 mps 759 mmHg 42%
    03:00 -4°C° 0 mm 6 mps 758 mmHg 44%
    04:00 -4°C° 0 mm 6 mps 757 mmHg 47%
    05:00 -4°C° 0 mm 6 mps 757 mmHg 49%
    06:00 -4°C° 0 mm 5 mps 757 mmHg 50%
    07:00 -4°C° 0 mm 5 mps 757 mmHg 51%
    08:00 -4°C° 0 mm 5 mps 757 mmHg 53%
    09:00 -4°C° 0 mm 5 mps 757 mmHg 53%
    10:00 -2°C° 0 mm 5 mps 757 mmHg 53%
    11:00 -2°C° 0 mm 5 mps 757 mmHg 53%
    12:00 -2°C° 0 mm 5 mps 757 mmHg 54%
    13:00 -2°C° 0 mm 4 mps 757 mmHg 56%
    14:00 -2°C° 0 mm 4 mps 757 mmHg 57%
    15:00 -2°C° 0 mm 4 mps 757 mmHg 60%
    16:00 -1°C° 0 mm 3 mps 757 mmHg 63%
    17:00 -2°C° 0 mm 3 mps 757 mmHg 65%
    18:00 -2°C° 0 mm 3 mps 758 mmHg 68%
    19:00 -2°C° 0 mm 3 mps 758 mmHg 70%
    20:00 -2°C° 0 mm 3 mps 758 mmHg 73%
    21:00 -4°C° 0 mm 3 mps 759 mmHg 76%
    22:00 -3°C° 0 mm 2 mps 759 mmHg 79%
    23:00 -3°C° 0 mm 2 mps 759 mmHg 83%

    Day after tomorrow, 15 November, Thursday

    Time Temperature Precipitation Wind Pressure Humidity
    00:00 -3°C° 0 mm 2 mps 760 mmHg 83%
    01:00 -2°C° 0 mm 2 mps 760 mmHg 83%
    02:00 -2°C° 0 mm 2 mps 760 mmHg 84%
    03:00 -2°C° 0 mm 2 mps 761 mmHg 84%
    04:00 -2°C° 0 mm 2 mps 761 mmHg 85%
    05:00 -2°C° 0 mm 2 mps 761 mmHg 85%
    06:00 -2°C° 0 mm 2 mps 762 mmHg 86%
    07:00 -2°C° 0 mm 2 mps 762 mmHg 86%
    08:00 -2°C° 0 mm 2 mps 763 mmHg 87%
    09:00 -1°C° 0 mm 2 mps 763 mmHg 83%
    10:00 -1°C° 0 mm 2 mps 763 mmHg 78%
    11:00 +1°C° 0 mm 2 mps 764 mmHg 74%
    12:00 +1°C° 0 mm 2 mps 764 mmHg 75%
    13:00 +2°C° 0 mm 1 mps 764 mmHg 75%
    14:00 +2°C° 0 mm 1 mps 764 mmHg 76%
    15:00 +1°C° 0 mm 1 mps 765 mmHg 78%
    16:00 +1°C° 0 mm 1 mps 765 mmHg 80%
    17:00 -2°C° 0 mm 2 mps 765 mmHg 83%
    18:00 0°C° 0 mm 1 mps 765 mmHg 84%
    19:00 0°C° 0 mm 1 mps 766 mmHg 86%
    20:00 -1°C° 0 mm 1 mps 766 mmHg 87%
    21:00 -1°C° 0 mm 1 mps 766 mmHg 87%
    22:00 -1°C° 0 mm 1 mps 766 mmHg 88%
    23:00 -1°C° 0 mm 1 mps 767 mmHg 88%

    16 November, Friday

    Time Temperature Precipitation Wind Pressure Humidity
    00:00 -1°C° 0 mm 1 mps 767 mmHg 89%
    01:00 -1°C° 0 mm 1 mps 767 mmHg 89%
    02:00 -1°C° 0 mm 1 mps 767 mmHg 90%
    03:00 -1°C° 0 mm 1 mps 767 mmHg 91%
    04:00 -1°C° 0 mm 1 mps 767 mmHg 91%
    05:00 -1°C° 0 mm 1 mps 767 mmHg 92%
    06:00 -1°C° 0 mm 1 mps 768 mmHg 92%
    07:00 -1°C° 0 mm 1 mps 768 mmHg 91%
    08:00 -2°C° 0 mm 2 mps 768 mmHg 91%
    09:00 -2°C° 0 mm 2 mps 768 mmHg 88%
    10:00 -1°C° 0 mm 2 mps 768 mmHg 86%
    11:00 +1°C° 0 mm 2 mps 768 mmHg 83%
    12:00 +1°C° 0 mm 2 mps 768 mmHg 84%
    13:00 +1°C° 0 mm 2 mps 768 mmHg 84%
    14:00 +1°C° 0 mm 2 mps 768 mmHg 84%
    15:00 +1°C° 0 mm 2 mps 768 mmHg 87%
    16:00 -1°C° 0 mm 2 mps 768 mmHg 90%
    17:00 -2°C° 0 mm 2 mps 768 mmHg 93%
    18:00 -2°C° 0 mm 2 mps 768 mmHg 93%
    19:00 -2°C° 0 mm 2 mps 768 mmHg 93%
    20:00 -2°C° 0 mm 2 mps 768 mmHg 94%
    21:00 -2°C° 0 mm 2 mps 768 mmHg 93%
    22:00 -1°C° 0 mm 2 mps 768 mmHg 93%
    23:00 -1°C° 0 mm 2 mps 767 mmHg 93%

    17 November, Saturday

    Time Temperature Precipitation Wind Pressure Humidity
    00:00 -1°C° 0 mm 2 mps 767 mmHg 93%
    01:00 -2°C° 0 mm 2 mps 767 mmHg 94%
    02:00 -2°C° 0 mm 2 mps 767 mmHg 94%
    03:00 -2°C° 0 mm 2 mps 766 mmHg 94%
    04:00 -2°C° 0 mm 3 mps 766 mmHg 94%
    05:00 -2°C° 0 mm 3 mps 765 mmHg 95%
    06:00 -2°C° 0 mm 3 mps 765 mmHg 94%
    07:00 -1°C° 0 mm 3 mps 765 mmHg 94%
    08:00 -1°C° 0 mm 3 mps 764 mmHg 94%
    09:00 -1°C° 0 mm 3 mps 764 mmHg 92%
    10:00 0°C° 0 mm 3 mps 764 mmHg 90%
    11:00 +1°C° 0 mm 3 mps 763 mmHg 88%
    12:00 +1°C° 0 mm 3 mps 762 mmHg 89%
    13:00 +1°C° 0 mm 3 mps 762 mmHg 90%
    14:00 +1°C° 0 mm 3 mps 761 mmHg 90%
    15:00 +1°C° 0 mm 3 mps 760 mmHg 91%
    16:00 +1°C° 0 mm 3 mps 760 mmHg 92%
    17:00 0°C° 0 mm 4 mps 759 mmHg 92%
    18:00 0°C° 0.1 mm 4 mps 758 mmHg 92%
    19:00 0°C° 0.1 mm 4 mps 757 mmHg 93%
    20:00 0°C° 0.1 mm 4 mps 756 mmHg 93%
    21:00 0°C° 0.1 mm 4 mps 756 mmHg 93%
    22:00 +1°C° 0.1 mm 3 mps 755 mmHg 94%
    23:00 +2°C° 0.1 mm 3 mps 754 mmHg 94%

    18 November, Sunday

    Time Temperature Precipitation Wind Pressure Humidity
    00:00 +1°C° 0.1 mm 3 mps 754 mmHg 94%
    01:00 +1°C° 0.1 mm 3 mps 754 mmHg 93%
    02:00 0°C° 0.1 mm 4 mps 753 mmHg 93%
    03:00 0°C° 0.1 mm 4 mps 752 mmHg 93%
    04:00 0°C° 0.1 mm 4 mps 752 mmHg 92%
    05:00 0°C° 0.1 mm 4 mps 751 mmHg 92%
    06:00 0°C° 0.2 mm 4 mps 751 mmHg 91%
    07:00 0°C° 0.2 mm 4 mps 751 mmHg 90%
    08:00 0°C° 0.2 mm 4 mps 751 mmHg 89%
    09:00 +1°C° 0.3 mm 4 mps 751 mmHg 88%
    10:00 +1°C° 0.3 mm 5 mps 751 mmHg 87%
    11:00 +1°C° 0.3 mm 5 mps 751 mmHg 85%
    12:00 +1°C° 0.3 mm 5 mps 752 mmHg 85%
    13:00 +1°C° 0.3 mm 6 mps 752 mmHg 84%
    14:00 +1°C° 0.3 mm 6 mps 753 mmHg 84%
    15:00 +1°C° 0.1 mm 6 mps 753 mmHg 84%
    16:00 -1°C° 0.1 mm 6 mps 754 mmHg 84%
    17:00 -1°C° 0.1 mm 6 mps 755 mmHg 84%
    18:00 -1°C° 0.1 mm 6 mps 755 mmHg 83%
    19:00 -2°C° 0.1 mm 6 mps 756 mmHg 83%
    20:00 -2°C° 0.1 mm 6 mps 756 mmHg 83%
    21:00 -1°C° 0.1 mm 5 mps 757 mmHg 82%
    22:00 -1°C° 0.1 mm 5 mps 757 mmHg 82%
    23:00 -2°C° 0.1 mm 5 mps 758 mmHg 82%
    Show more